| time (UTC) | temp F | wind direction | speed MPH | gust MPH | rain 1hr in | rain 24hr in | rain mn in | humidity % | barometer mb |
| 20260505212101 | 91 | 208 | 4.0 | 5.0 | 0.00 | 0.00 | 0.00 | 52 | 1004.1 |
| 20260505211553 | 89 | 204 | 2.0 | 9.0 | 0.00 | 0.00 | 0.00 | 54 | 1004.4 |
| 20260505211050 | 91 | 266 | 7.0 | 7.0 | 0.00 | 0.00 | 0.00 | 52 | 1004.1 |
| 20260505210546 | 91 | 220 | 4.0 | 7.0 | 0.00 | 0.00 | 0.00 | 51 | 1004.3 |
| 20260505210044 | 89 | 207 | 5.0 | 9.0 | 0.00 | 0.00 | 0.00 | 55 | 1004.1 |
| 20260505205541 | 89 | 227 | 11.0 | 11.0 | 0.00 | 0.00 | 0.00 | 56 | 1004.2 |
| 20260505205038 | 89 | 234 | 2.0 | 8.0 | 0.00 | 0.00 | 0.00 | 57 | 1004.3 |
| 20260505204536 | 88 | 228 | 2.0 | 6.0 | 0.00 | 0.00 | 0.00 | 59 | 1004.4 |
| 20260505204033 | 87 | 200 | 4.0 | 11.0 | 0.00 | 0.00 | 0.00 | 59 | 1004.4 |
| 20260505203529 | 88 | 187 | 6.0 | 11.0 | 0.00 | 0.00 | 0.00 | 58 | 1004.7 |
| 20260505203027 | 90 | 240 | 4.0 | 5.0 | 0.00 | 0.00 | 0.00 | 57 | 1004.7 |
| 20260505202523 | 89 | 239 | 7.0 | 15.0 | 0.00 | 0.00 | 0.00 | 58 | 1004.7 |
| 20260505202019 | 88 | 226 | 2.0 | 7.0 | 0.00 | 0.00 | 0.00 | 60 | 1004.8 |
| 20260505201516 | 88 | 112 | 2.0 | 12.0 | 0.00 | 0.00 | 0.00 | 60 | 1004.6 |
| 20260505201013 | 87 | 220 | 2.0 | 7.0 | 0.00 | 0.00 | 0.00 | 60 | 1004.7 |
| 20260505200511 | 87 | 219 | 8.0 | 9.0 | 0.00 | 0.00 | 0.00 | 60 | 1004.6 |
| 20260505200008 | 88 | 171 | 5.0 | 5.0 | 0.00 | 0.00 | 0.00 | 58 | 1004.8 |
| 20260505195503 | 87 | 231 | 6.0 | 11.0 | 0.00 | 0.00 | 0.00 | 61 | 1004.6 |
| 20260505195001 | 87 | 215 | 4.0 | 9.0 | 0.00 | 0.00 | 0.00 | 60 | 1004.7 |
| 20260505194458 | 87 | 244 | 2.0 | 6.0 | 0.00 | 0.00 | 0.00 | 60 | 1004.6 |
| 20260505193958 | 87 | 211 | 8.0 | 10.0 | 0.00 | 0.00 | 0.00 | 60 | 1005.0 |
| 20260505193456 | 87 | 221 | 2.0 | 10.0 | 0.00 | 0.00 | 0.00 | 61 | 1005.0 |
| 20260505192953 | 87 | 223 | 7.0 | 13.0 | 0.00 | 0.00 | 0.00 | 61 | 1004.8 |
| 20260505192452 | 85 | 226 | 3.0 | 11.0 | 0.00 | 0.00 | 0.00 | 63 | 1004.8 |
| 20260505191948 | 86 | 239 | 5.0 | 16.0 | 0.00 | 0.00 | 0.00 | 63 | 1004.8 |
| 20260505191447 | 86 | 199 | 3.0 | 11.0 | 0.00 | 0.00 | 0.00 | 63 | 1004.9 |
| 20260505190943 | 86 | 164 | 1.0 | 5.0 | 0.00 | 0.00 | 0.00 | 63 | 1004.8 |
| 20260505190438 | 86 | 197 | 2.0 | 8.0 | 0.00 | 0.00 | 0.00 | 62 | 1004.8 |
| 20260505185934 | 85 | 30 | 1.0 | 6.0 | 0.00 | 0.00 | 0.00 | 65 | 1005.0 |
| 20260505185432 | 84 | 193 | 7.0 | 13.0 | 0.00 | 0.00 | 0.00 | 66 | 1005.0 |
| 20260505184928 | 84 | 200 | 2.0 | 9.0 | 0.00 | 0.00 | 0.00 | 65 | 1005.0 |
| 20260505184425 | 84 | 220 | 3.0 | 10.0 | 0.00 | 0.00 | 0.00 | 66 | 1005.1 |
| 20260505183922 | 83 | 275 | 4.0 | 14.0 | 0.00 | 0.00 | 0.00 | 66 | 1005.0 |
| 20260505183419 | 84 | 210 | 4.0 | 11.0 | 0.00 | 0.00 | 0.00 | 66 | 1005.2 |
| 20260505182915 | 84 | 220 | 9.0 | 16.0 | 0.00 | 0.00 | 0.00 | 66 | 1005.0 |
| 20260505182412 | 84 | 208 | 7.0 | 11.0 | 0.00 | 0.00 | 0.00 | 66 | 1005.0 |
| 20260505181908 | 84 | 204 | 6.0 | 6.0 | 0.00 | 0.00 | 0.00 | 66 | 1005.1 |
| 20260505181406 | 83 | 226 | 2.0 | 10.0 | 0.00 | 0.00 | 0.00 | 67 | 1005.3 |
| 20260505180903 | 83 | 216 | 5.0 | 10.0 | 0.00 | 0.00 | 0.00 | 67 | 1005.1 |
| 20260505180359 | 84 | 223 | 7.0 | 8.0 | 0.00 | 0.00 | 0.00 | 66 | 1005.2 |
| 20260505175856 | 83 | 226 | 5.0 | 15.0 | 0.00 | 0.00 | 0.00 | 68 | 1005.0 |
| 20260505175352 | 82 | 245 | 4.0 | 19.0 | 0.00 | 0.00 | 0.00 | 68 | 1005.0 |
| 20260505174848 | 83 | 170 | 2.0 | 9.0 | 0.00 | 0.00 | 0.00 | 68 | 1005.0 |
| 20260505174346 | 83 | 197 | 4.0 | 7.0 | 0.00 | 0.00 | 0.00 | 67 | 1005.1 |
| 20260505173842 | 82 | 128 | 2.0 | 14.0 | 0.00 | 0.00 | 0.00 | 69 | 1005.3 |
| 20260505173334 | 82 | 247 | 4.0 | 13.0 | 0.00 | 0.00 | 0.00 | 69 | 1005.1 |
| 20260505172831 | 81 | 209 | 6.0 | 16.0 | 0.00 | 0.00 | 0.00 | 69 | 1005.3 |
| 20260505172328 | 81 | 231 | 11.0 | 16.0 | 0.00 | 0.00 | 0.00 | 69 | 1005.4 |
| 20260505171827 | 81 | 225 | 7.0 | 10.0 | 0.00 | 0.00 | 0.00 | 70 | 1005.2 |
| 20260505171324 | 81 | 230 | 9.0 | 13.0 | 0.00 | 0.00 | 0.00 | 70 | 1005.3 |
| 20260505170821 | 80 | 218 | 4.0 | 11.0 | 0.00 | 0.00 | 0.00 | 71 | 1005.3 |
| 20260505170318 | 80 | 240 | 1.0 | 9.0 | 0.00 | 0.00 | 0.00 | 71 | 1005.4 |
| 20260505165813 | 81 | 197 | 4.0 | 6.0 | 0.00 | 0.00 | 0.00 | 70 | 1005.5 |
| 20260505165309 | 80 | 215 | 7.0 | 14.0 | 0.00 | 0.00 | 0.00 | 71 | 1005.3 |
| 20260505164804 | 80 | 181 | 2.0 | 12.0 | 0.00 | 0.00 | 0.00 | 71 | 1005.3 |
| 20260505164302 | 79 | 221 | 5.0 | 10.0 | 0.00 | 0.00 | 0.00 | 72 | 1005.2 |
| 20260505163800 | 79 | 226 | 5.0 | 15.0 | 0.00 | 0.00 | 0.00 | 72 | 1005.2 |
| 20260505163258 | 80 | 255 | 3.0 | 5.0 | 0.00 | 0.00 | 0.00 | 71 | 1005.1 |
| 20260505162756 | 79 | 216 | 4.0 | 17.0 | 0.00 | 0.00 | 0.00 | 72 | 1005.0 |
| 20260505162252 | 79 | 217 | 5.0 | 17.0 | 0.00 | 0.00 | 0.00 | 72 | 1005.2 |
| 20260505161749 | 79 | 247 | 4.0 | 13.0 | 0.00 | 0.00 | 0.00 | 73 | 1005.2 |
| 20260505161247 | 78 | 203 | 3.0 | 14.0 | 0.00 | 0.00 | 0.00 | 73 | 1005.3 |
| 20260505160744 | 78 | 215 | 6.0 | 19.0 | 0.00 | 0.00 | 0.00 | 73 | 1005.2 |
| 20260505160242 | 78 | 226 | 4.0 | 14.0 | 0.00 | 0.00 | 0.00 | 73 | 1005.2 |
| 20260505153221 | 78 | 211 | 4.0 | 15.0 | 0.00 | 0.00 | 0.00 | 74 | 1004.8 |
| 20260505152718 | 78 | 168 | 4.0 | 11.0 | 0.00 | 0.00 | 0.00 | 75 | 1004.6 |
| 20260505152214 | 77 | 220 | 4.0 | 12.0 | 0.00 | 0.00 | 0.00 | 75 | 1004.9 |
| 20260505151709 | 77 | 209 | 2.0 | 13.0 | 0.00 | 0.00 | 0.00 | 76 | 1004.9 |
| 20260505151206 | 76 | 216 | 5.0 | 8.0 | 0.00 | 0.00 | 0.00 | 77 | 1005.1 |
| 20260505150702 | 76 | 238 | 6.0 | 15.0 | 0.00 | 0.00 | 0.00 | 77 | 1005.1 |
| 20260505150201 | 76 | 216 | 5.0 | 16.0 | 0.00 | 0.00 | 0.00 | 77 | 1005.0 |
| 20260505140633 | 74 | 123 | 2.0 | 7.0 | 0.00 | 0.00 | 0.00 | 81 | 1005.0 |
| 20260505140130 | 74 | 221 | 4.0 | 11.0 | 0.00 | 0.00 | 0.00 | 81 | 1005.0 |
| 20260505124544 | 72 | 252 | 4.0 | 5.0 | 0.00 | 0.00 | 0.00 | 83 | 1004.7 |
| 20260505124040 | 72 | 212 | 8.0 | 9.0 | 0.00 | 0.00 | 0.00 | 83 | 1004.6 |
| 20260505123537 | 72 | 219 | 2.0 | 6.0 | 0.00 | 0.00 | 0.00 | 84 | 1004.5 |
| 20260505123033 | 72 | 187 | 2.0 | 7.0 | 0.00 | 0.00 | 0.00 | 83 | 1004.2 |
| 20260505122530 | 72 | 212 | 5.0 | 11.0 | 0.00 | 0.00 | 0.00 | 83 | 1004.3 |
| 20260505122027 | 72 | 209 | 8.0 | 13.0 | 0.00 | 0.00 | 0.00 | 83 | 1004.3 |
| 20260505121523 | 72 | 224 | 5.0 | 11.0 | 0.00 | 0.00 | 0.00 | 83 | 1004.4 |
| 20260505121020 | 72 | 222 | 6.0 | 13.0 | 0.00 | 0.00 | 0.00 | 83 | 1004.3 |
| 20260505120516 | 73 | 188 | 4.0 | 11.0 | 0.00 | 0.00 | 0.00 | 82 | 1004.1 |
| 20260505120012 | 72 | 214 | 4.0 | 8.0 | 0.00 | 0.00 | 0.00 | 83 | 1004.1 |
| 20260505115507 | 73 | 206 | 4.0 | 13.0 | 0.00 | 0.00 | 0.00 | 82 | 1004.2 |
| 20260505115005 | 72 | 72 | 3.0 | 12.0 | 0.00 | 0.00 | 0.00 | 82 | 1003.9 |
| 20260505114502 | 72 | 221 | 3.0 | 7.0 | 0.00 | 0.00 | 0.00 | 83 | 1003.8 |
| 20260505113958 | 72 | 233 | 8.0 | 10.0 | 0.00 | 0.00 | 0.00 | 83 | 1003.8 |
| 20260505113455 | 72 | 214 | 10.0 | 14.0 | 0.00 | 0.00 | 0.00 | 82 | 1003.9 |
| 20260505112950 | 72 | 204 | 2.0 | 6.0 | 0.00 | 0.00 | 0.00 | 82 | 1004.0 |
| 20260505112447 | 72 | 225 | 5.0 | 16.0 | 0.00 | 0.00 | 0.00 | 82 | 1004.0 |
| 20260505111944 | 72 | 166 | 3.0 | 14.0 | 0.00 | 0.00 | 0.00 | 82 | 1003.6 |
| 20260505111438 | 72 | 220 | 14.0 | 15.0 | 0.00 | 0.00 | 0.00 | 82 | 1003.9 |
| 20260505110935 | 72 | 153 | 5.0 | 13.0 | 0.00 | 0.00 | 0.00 | 82 | 1004.2 |
| 20260505110432 | 72 | 230 | 5.0 | 13.0 | 0.00 | 0.00 | 0.00 | 83 | 1004.1 |
| 20260505101903 | 72 | 224 | 4.0 | 7.0 | 0.00 | 0.00 | 0.00 | 83 | 1004.0 |
| 20260505101358 | 72 | 227 | 3.0 | 10.0 | 0.00 | 0.00 | 0.00 | 83 | 1004.0 |
| 20260505100854 | 72 | 190 | 3.0 | 8.0 | 0.00 | 0.00 | 0.00 | 83 | 1004.0 |
| 20260505100350 | 72 | 198 | 3.0 | 7.0 | 0.00 | 0.00 | 0.00 | 83 | 1004.0 |
| 20260505095846 | 72 | 204 | 7.0 | 19.0 | 0.00 | 0.00 | 0.00 | 83 | 1004.0 |
| 20260505095344 | 72 | 120 | 4.0 | 10.0 | 0.00 | 0.00 | 0.00 | 83 | 1004.1 |
| 20260505094839 | 72 | 169 | 4.0 | 5.0 | 0.00 | 0.00 | 0.00 | 83 | 1004.1 |
| 20260505094337 | 72 | 201 | 2.0 | 10.0 | 0.00 | 0.00 | 0.00 | 83 | 1004.1 |
| 20260505093832 | 72 | 208 | 2.0 | 17.0 | 0.00 | 0.00 | 0.00 | 83 | 1004.2 |
| 20260505093330 | 72 | 215 | 8.0 | 9.0 | 0.00 | 0.00 | 0.00 | 83 | 1004.2 |
| 20260505092827 | 72 | 17 | 3.0 | 5.0 | 0.00 | 0.00 | 0.00 | 83 | 1004.2 |
| 20260505092325 | 71 | 353 | 2.0 | 6.0 | 0.00 | 0.00 | 0.00 | 84 | 1004.4 |
| 20260505091822 | 72 | 230 | 5.0 | 8.0 | 0.00 | 0.00 | 0.00 | 83 | 1004.6 |
| 20260505091320 | 72 | 196 | 3.0 | 6.0 | 0.00 | 0.00 | 0.00 | 83 | 1004.4 |
| 20260505090818 | 72 | 235 | 3.0 | 11.0 | 0.00 | 0.00 | 0.00 | 83 | 1004.5 |
| 20260505090316 | 71 | 210 | 4.0 | 10.0 | 0.00 | 0.00 | 0.00 | 84 | 1004.5 |
| 20260505085813 | 71 | 204 | 6.0 | 7.0 | 0.00 | 0.00 | 0.00 | 84 | 1004.4 |
| 20260505085311 | 71 | 181 | 4.0 | 7.0 | 0.00 | 0.00 | 0.00 | 84 | 1004.4 |
| 20260505084808 | 71 | 180 | 5.0 | 9.0 | 0.00 | 0.00 | 0.00 | 84 | 1004.4 |
| 20260505084307 | 71 | 230 | 2.0 | 9.0 | 0.00 | 0.00 | 0.00 | 84 | 1004.3 |
| 20260505083803 | 71 | 191 | 2.0 | 6.0 | 0.00 | 0.00 | 0.00 | 84 | 1004.4 |
| 20260505083300 | 71 | 232 | 11.0 | 12.0 | 0.00 | 0.00 | 0.00 | 84 | 1004.3 |
| 20260505082756 | 71 | 193 | 5.0 | 9.0 | 0.00 | 0.00 | 0.00 | 84 | 1004.3 |
| 20260505082254 | 71 | 170 | 4.0 | 8.0 | 0.00 | 0.00 | 0.00 | 83 | 1004.5 |
| 20260505081749 | 71 | 159 | 2.0 | 11.0 | 0.00 | 0.00 | 0.00 | 83 | 1004.6 |
| 20260505081247 | 71 | 208 | 2.0 | 10.0 | 0.00 | 0.00 | 0.00 | 83 | 1004.5 |
| 20260505080744 | 71 | 152 | 4.0 | 5.0 | 0.00 | 0.00 | 0.00 | 83 | 1004.5 |
| 20260505080239 | 71 | 136 | 1.0 | 5.0 | 0.00 | 0.00 | 0.00 | 82 | 1004.5 |
| 20260505075735 | 72 | 163 | 5.0 | 5.0 | 0.00 | 0.00 | 0.00 | 82 | 1004.7 |
| 20260505075232 | 72 | 152 | 1.0 | 7.0 | 0.00 | 0.00 | 0.00 | 82 | 1004.7 |
| 20260505074730 | 72 | 233 | 4.0 | 9.0 | 0.00 | 0.00 | 0.00 | 82 | 1004.7 |
| 20260505074227 | 72 | 187 | 5.0 | 11.0 | 0.00 | 0.00 | 0.00 | 81 | 1004.8 |
| 20260505073724 | 72 | 167 | 3.0 | 5.0 | 0.00 | 0.00 | 0.00 | 81 | 1004.9 |
| 20260505073222 | 72 | 176 | 2.0 | 9.0 | 0.00 | 0.00 | 0.00 | 81 | 1004.9 |
| 20260505072718 | 72 | 257 | 2.0 | 7.0 | 0.00 | 0.00 | 0.00 | 80 | 1005.1 |
| 20260505072214 | 72 | 227 | 14.0 | 15.0 | 0.00 | 0.00 | 0.00 | 80 | 1005.1 |
| 20260505071710 | 72 | 229 | 5.0 | 13.0 | 0.00 | 0.00 | 0.00 | 80 | 1005.2 |
| 20260505071207 | 72 | 230 | 4.0 | 5.0 | 0.00 | 0.00 | 0.00 | 80 | 1005.2 |
| 20260505070705 | 73 | 246 | 3.0 | 10.0 | 0.00 | 0.00 | 0.00 | 79 | 1005.2 |
| 20260505070201 | 73 | 216 | 5.0 | 8.0 | 0.00 | 0.00 | 0.00 | 79 | 1005.4 |
| 20260505065657 | 72 | 244 | 3.0 | 10.0 | 0.00 | 0.00 | 0.00 | 79 | 1005.5 |
| 20260505065154 | 73 | 206 | 6.0 | 9.0 | 0.00 | 0.00 | 0.00 | 79 | 1005.6 |
| 20260505064651 | 72 | 189 | 2.0 | 4.0 | 0.00 | 0.00 | 0.00 | 78 | 1005.6 |
| 20260505064149 | 72 | 143 | 3.0 | 6.0 | 0.00 | 0.00 | 0.00 | 78 | 1005.6 |
| 20260505063646 | 72 | 75 | 2.0 | 5.0 | 0.00 | 0.00 | 0.00 | 78 | 1005.7 |
| 20260505063142 | 72 | 149 | 3.0 | 6.0 | 0.00 | 0.00 | 0.00 | 78 | 1005.8 |
| 20260505062638 | 73 | 181 | 3.0 | 11.0 | 0.00 | 0.00 | 0.00 | 78 | 1005.8 |
| 20260505062136 | 73 | 277 | 1.0 | 5.0 | 0.00 | 0.00 | 0.00 | 78 | 1005.7 |
| 20260505061633 | 73 | 173 | 4.0 | 6.0 | 0.00 | 0.00 | 0.00 | 77 | 1005.6 |
| 20260505061131 | 73 | 119 | 4.0 | 6.0 | 0.00 | 0.00 | 0.00 | 77 | 1005.8 |
| 20260505060628 | 73 | 234 | 4.0 | 5.0 | 0.00 | 0.00 | 0.00 | 77 | 1005.7 |
| 20260505060125 | 73 | 332 | 2.0 | 9.0 | 0.00 | 0.00 | 0.00 | 77 | 1005.8 |
| 20260505055620 | 73 | 190 | 4.0 | 12.0 | 0.00 | 0.00 | 0.00 | 76 | 1005.8 |
| 20260505055117 | 73 | 149 | 8.0 | 12.0 | 0.00 | 0.00 | 0.00 | 76 | 1005.6 |
| 20260505054614 | 73 | 202 | 1.0 | 7.0 | 0.00 | 0.00 | 0.00 | 76 | 1005.9 |
| 20260505054112 | 73 | 181 | 4.0 | 10.0 | 0.00 | 0.00 | 0.00 | 76 | 1005.8 |
| 20260505053609 | 73 | 163 | 3.0 | 5.0 | 0.00 | 0.00 | 0.00 | 75 | 1005.8 |
| 20260505053106 | 73 | 256 | 0.0 | 5.0 | 0.00 | 0.00 | 0.00 | 75 | 1005.9 |
| 20260505052603 | 73 | 172 | 4.0 | 8.0 | 0.00 | 0.00 | 0.00 | 75 | 1006.0 |
| 20260505052100 | 73 | 156 | 5.0 | 9.0 | 0.00 | 0.00 | 0.00 | 74 | 1005.9 |
| 20260505051557 | 73 | 197 | 3.0 | 10.0 | 0.00 | 0.00 | 0.00 | 74 | 1006.1 |
| 20260505051055 | 74 | 178 | 4.0 | 9.0 | 0.00 | 0.00 | 0.00 | 74 | 1006.1 |
| 20260505050553 | 74 | 210 | 2.0 | 11.0 | 0.00 | 0.00 | 0.00 | 73 | 1006.3 |
| 20260505041521 | 74 | 178 | 3.0 | 7.0 | 0.00 | 0.00 | 0.00 | 71 | 1006.2 |
| 20260505041018 | 74 | 241 | 3.0 | 7.0 | 0.00 | 0.00 | 0.00 | 71 | 1006.4 |
| 20260505040515 | 74 | 195 | 2.0 | 6.0 | 0.00 | 0.00 | 0.00 | 71 | 1006.4 |
| 20260505040012 | 75 | 285 | 2.0 | 8.0 | 0.00 | 0.00 | 0.00 | 71 | 1006.3 |
| 20260505035508 | 75 | 241 | 2.0 | 9.0 | 0.00 | 0.00 | 0.00 | 70 | 1006.3 |
| 20260505035005 | 75 | 147 | 4.0 | 9.0 | 0.00 | 0.00 | 0.00 | 70 | 1006.3 |
| 20260505034501 | 75 | 215 | 4.0 | 7.0 | 0.00 | 0.00 | 0.00 | 70 | 1006.2 |
| 20260505033959 | 75 | 223 | 2.0 | 5.0 | 0.00 | 0.00 | 0.00 | 70 | 1006.0 |
| 20260505033455 | 75 | 179 | 2.0 | 9.0 | 0.00 | 0.00 | 0.00 | 69 | 1006.3 |
| 20260505032954 | 75 | 225 | 0.0 | 4.0 | 0.00 | 0.00 | 0.00 | 69 | 1006.4 |
| 20260505032451 | 75 | 180 | 2.0 | 8.0 | 0.00 | 0.00 | 0.00 | 69 | 1006.5 |
| 20260505031947 | 75 | 138 | 4.0 | 5.0 | 0.00 | 0.00 | 0.00 | 69 | 1006.2 |
| 20260505031444 | 75 | 207 | 0.0 | 4.0 | 0.00 | 0.00 | 0.00 | 69 | 1006.3 |
| 20260505030941 | 75 | 158 | 3.0 | 6.0 | 0.00 | 0.00 | 0.00 | 69 | 1006.4 |
| 20260505030437 | 75 | 212 | 3.0 | 6.0 | 0.00 | 0.00 | 0.00 | 69 | 1006.4 |
| 20260505025932 | 75 | 163 | 4.0 | 8.0 | 0.00 | 0.00 | 0.00 | 68 | 1006.4 |
| 20260505025430 | 75 | 208 | 4.0 | 6.0 | 0.00 | 0.00 | 0.00 | 68 | 1006.4 |
| 20260505024929 | 75 | 124 | 2.0 | 9.0 | 0.00 | 0.00 | 0.00 | 68 | 1006.6 |
| 20260505024426 | 75 | 164 | 1.0 | 4.0 | 0.00 | 0.00 | 0.00 | 68 | 1006.5 |
| 20260505023923 | 75 | 124 | 2.0 | 5.0 | 0.00 | 0.00 | 0.00 | 68 | 1006.2 |
| 20260505023420 | 75 | 257 | 0.0 | 6.0 | 0.00 | 0.00 | 0.00 | 68 | 1006.3 |
| 20260505022917 | 75 | 183 | 1.0 | 4.0 | 0.00 | 0.00 | 0.00 | 68 | 1006.3 |
| 20260505022415 | 75 | 169 | 3.0 | 4.0 | 0.00 | 0.00 | 0.00 | 68 | 1006.4 |
| 20260505021911 | 75 | 238 | 6.0 | 6.0 | 0.00 | 0.00 | 0.00 | 68 | 1006.2 |
| 20260505021408 | 76 | 142 | 5.0 | 20.0 | 0.00 | 0.00 | 0.00 | 67 | 1006.3 |
| 20260505020903 | 75 | 149 | 3.0 | 12.0 | 0.00 | 0.00 | 0.00 | 67 | 1006.1 |
| 20260505020359 | 76 | 168 | 2.0 | 4.0 | 0.00 | 0.00 | 0.00 | 67 | 1006.1 |
| 20260505015856 | 76 | 153 | 2.0 | 5.0 | 0.00 | 0.00 | 0.00 | 67 | 1006.2 |
| 20260505015353 | 76 | 215 | 2.0 | 5.0 | 0.00 | 0.00 | 0.00 | 67 | 1006.1 |
| 20260505014851 | 76 | 166 | 2.0 | 7.0 | 0.00 | 0.00 | 0.00 | 67 | 1006.3 |
| 20260505014347 | 76 | 213 | 2.0 | 6.0 | 0.00 | 0.00 | 0.00 | 66 | 1006.3 |
| 20260505013844 | 76 | 199 | 1.0 | 6.0 | 0.00 | 0.00 | 0.00 | 66 | 1006.3 |
| 20260505013341 | 76 | 170 | 3.0 | 16.0 | 0.00 | 0.00 | 0.00 | 66 | 1006.1 |
| 20260505012840 | 77 | 164 | 4.0 | 10.0 | 0.00 | 0.00 | 0.00 | 65 | 1006.2 |
| 20260505012337 | 77 | 158 | 2.0 | 5.0 | 0.00 | 0.00 | 0.00 | 65 | 1006.2 |
| 20260505011833 | 77 | 206 | 9.0 | 9.0 | 0.00 | 0.00 | 0.00 | 65 | 1006.0 |
| 20260505011330 | 77 | 272 | 2.0 | 8.0 | 0.00 | 0.00 | 0.00 | 65 | 1006.2 |
| 20260505010826 | 77 | 149 | 4.0 | 11.0 | 0.00 | 0.00 | 0.00 | 65 | 1006.1 |
| 20260505010322 | 77 | 224 | 4.0 | 8.0 | 0.00 | 0.00 | 0.00 | 64 | 1005.9 |
| 20260505005818 | 77 | 129 | 1.0 | 3.0 | 0.00 | 0.00 | 0.00 | 64 | 1006.1 |
| 20260505005315 | 77 | 194 | 2.0 | 4.0 | 0.00 | 0.00 | 0.00 | 64 | 1006.0 |
| 20260505004813 | 77 | 245 | 2.0 | 4.0 | 0.00 | 0.00 | 0.00 | 63 | 1006.2 |
| 20260505004309 | 77 | 159 | 3.0 | 7.0 | 0.00 | 0.00 | 0.00 | 63 | 1006.0 |
| 20260505003806 | 78 | 197 | 2.0 | 9.0 | 0.00 | 0.00 | 0.00 | 62 | 1006.2 |
| 20260505003304 | 78 | 192 | 3.0 | 12.0 | 0.00 | 0.00 | 0.00 | 62 | 1006.3 |
| 20260505002759 | 78 | 179 | 7.0 | 11.0 | 0.00 | 0.00 | 0.00 | 62 | 1006.1 |
| 20260505002257 | 78 | 210 | 2.0 | 15.0 | 0.00 | 0.00 | 0.00 | 61 | 1006.1 |
| 20260505001755 | 78 | 142 | 3.0 | 10.0 | 0.00 | 0.00 | 0.00 | 61 | 1006.3 |
| 20260505001252 | 78 | 212 | 9.0 | 16.0 | 0.00 | 0.00 | 0.00 | 60 | 1006.4 |
| 20260505000749 | 79 | 235 | 3.0 | 5.0 | 0.00 | 0.00 | 0.00 | 60 | 1006.3 |
| 20260505000247 | 79 | 190 | 6.0 | 9.0 | 0.00 | 0.00 | 0.00 | 60 | 1006.1 |
| 20260504235743 | 79 | 197 | 4.0 | 13.0 | 0.00 | 0.00 | 0.00 | 60 | 1006.1 |
| 20260504235239 | 79 | 190 | 6.0 | 8.0 | 0.00 | 0.00 | 0.00 | 60 | 1006.3 |
| 20260504234737 | 79 | 244 | 5.0 | 13.0 | 0.00 | 0.00 | 0.00 | 60 | 1006.4 |
| 20260504234233 | 79 | 206 | 4.0 | 7.0 | 0.00 | 0.00 | 0.00 | 60 | 1006.4 |
| 20260504233730 | 79 | 252 | 1.0 | 12.0 | 0.00 | 0.00 | 0.00 | 60 | 1006.4 |
| 20260504233225 | 79 | 220 | 10.0 | 12.0 | 0.00 | 0.00 | 0.00 | 59 | 1006.5 |
| 20260504232723 | 79 | 190 | 4.0 | 15.0 | 0.00 | 0.00 | 0.00 | 59 | 1006.4 |
| 20260504232219 | 79 | 194 | 2.0 | 7.0 | 0.00 | 0.00 | 0.00 | 59 | 1006.3 |
| 20260504231716 | 80 | 180 | 3.0 | 10.0 | 0.00 | 0.00 | 0.00 | 59 | 1006.4 |
| 20260504231213 | 80 | 229 | 2.0 | 6.0 | 0.00 | 0.00 | 0.00 | 58 | 1006.7 |
| 20260504230709 | 81 | 127 | 3.0 | 12.0 | 0.00 | 0.00 | 0.00 | 58 | 1006.9 |
| 20260504230208 | 81 | 209 | 6.0 | 9.0 | 0.00 | 0.00 | 0.00 | 56 | 1006.7 |
| 20260504225706 | 81 | 201 | 3.0 | 16.0 | 0.00 | 0.00 | 0.00 | 56 | 1006.6 |
| 20260504225201 | 82 | 235 | 2.0 | 5.0 | 0.00 | 0.00 | 0.00 | 56 | 1006.9 |
| 20260504224659 | 82 | 255 | 2.0 | 11.0 | 0.00 | 0.00 | 0.00 | 55 | 1006.9 |
| 20260504224156 | 82 | 65 | 3.0 | 9.0 | 0.00 | 0.00 | 0.00 | 56 | 1006.9 |
| 20260504223653 | 82 | 211 | 6.0 | 10.0 | 0.00 | 0.00 | 0.00 | 55 | 1007.0 |
| 20260504223148 | 82 | 201 | 5.0 | 8.0 | 0.00 | 0.00 | 0.00 | 56 | 1006.7 |
| 20260504222645 | 82 | 147 | 6.0 | 13.0 | 0.00 | 0.00 | 0.00 | 56 | 1006.6 |
| 20260504222142 | 83 | 251 | 3.0 | 15.0 | 0.00 | 0.00 | 0.00 | 55 | 1006.7 |
| 20260504221640 | 82 | 311 | 2.0 | 12.0 | 0.00 | 0.00 | 0.00 | 55 | 1006.7 |
| 20260504221136 | 81 | 242 | 4.0 | 20.0 | 0.00 | 0.00 | 0.00 | 55 | 1007.1 |
| 20260504220633 | 81 | 235 | 6.0 | 11.0 | 0.00 | 0.00 | 0.00 | 56 | 1007.1 |
| 20260504220131 | 81 | 218 | 4.0 | 12.0 | 0.00 | 0.00 | 0.00 | 56 | 1007.2 |
| 20260504215627 | 82 | 218 | 3.0 | 13.0 | 0.00 | 0.00 | 0.00 | 55 | 1007.2 |
| 20260504215125 | 83 | 242 | 3.0 | 11.0 | 0.00 | 0.00 | 0.00 | 53 | 1007.3 |
| 20260504214620 | 84 | 342 | 2.0 | 6.0 | 0.00 | 0.00 | 0.00 | 54 | 1007.4 |
| 20260504214116 | 83 | 206 | 7.0 | 13.0 | 0.00 | 0.00 | 0.00 | 54 | 1007.6 |
| 20260504213613 | 82 | 199 | 4.0 | 6.0 | 0.00 | 0.00 | 0.00 | 55 | 1007.7 |
| 20260504213110 | 82 | 238 | 3.0 | 13.0 | 0.00 | 0.00 | 0.00 | 55 | 1007.7 |
| 20260504212606 | 83 | 206 | 4.0 | 9.0 | 0.00 | 0.00 | 0.00 | 54 | 1007.6 |